Reflectivity
-20 -20 -20 -20 -20 -20 -20 -20 -20 -20 -20 -20 -20 -20 -20 -20 -20 -20 -20 8 -4 -20 -20 -20 -20 -20 -20 -20 -20 -10 30 20 16
-20 -20 -20 -20 -20 -20 -5 -20 -19 -20 -20 -20 -20 -20 -20 -20 -20 -20 -20 -20 -20 -20 -20 -20 -20 -20 -20 -20 -20 -20 -20 -20 -5
-5 12 -10 -4 -12 -20 8 12 -20 -10 -1 -20 -20 -20 -20 -18 10 -7 -20 -20 -20 -20 -20 -20 -20 -20 -20 -20 -20 -13 6 -19 6
9 2 -16 8 6 5 -15 11 -20 2 -20 -20 -20 -20 -20 -20 11 -20 -20 -20 -20 -17 -20 -20 -20 -20 -20 -20 -20 -20 -20 -20 -6
-20 -20 -20 -7 -3 -12 11 1 -18 -20 -20 -20 -20 -20 -20 -20 -20 -19 -20 -20 8 -20 -20 -20 -20 -20 26 -20 -20 -20 -20 -20 -12
-20 -20 -20 -20 -20 -20 -8 -0 9 -0 -20 -20 -20 -20 -4 -20 -20 1 -20 -20 25 -18 -20 -20 -20 -20 -20 -20 -20 -20 -20 -4 -20
-20 -20 -20 -20 -20 -20 -20 -20 -20 11 -18 -20 -20 -20 -3 -7 -7 -3 -10 18 2 -11 -20 -20 -20 -20 -20 -20 -20 -20 -20 -20 -20
-20 -20 -20 -20 -20 -20 -20 6 7 -6 1 -20 2 9 14 12 13 2 -13 7 7 8 14 -20 -20 -20 -0 -15 14 -20 -14 -20 -20
-20 -20 -20 -20 -20 -20 -20 -20 -1 -8 -20 -20 1 3 -1 5 7 11 9 7 11 14 13 -3 -9 -10 30 12 -19 -20 -20 -20 -20
-20 -20 -20 -20 -20 -20 -20 -20 -20 -20 -20 -20 -20 -20 -20 -20 -5 13 12 9 11 3 13 18 20 13 13 7 -19 -20 -20 -20 -20
-20 -20 -20 -20 -20 -20 -20 -20 -20 -20 -20 -20 -20 -20 -7 3 -3 -3 15 9 14 12 9 5 20 14 17 10 15 -18 -20 -20 -20
-20 -20 -20 -20 -20 -20 -20 -20 -20 -20 -20 -20 -20 -20 -20 -20 -20 -14 -20 -0 12 14 12 12 12 6 21 14 2 9 -20 -20 -20
-20 -20 -20 -20 -20 -20 -20 -20 -20 -20 -20 -20 -20 -20 -20 -20 -20 -20 -20 -20 -20 4 8 8 8 8 15 10 12 7 -17 5 -3
-20 -20 -20 -20 -20 -20 -20 -20 -20 -20 -20 -20 -20 -20 -20 -20 -20 -20 -20 -20 -20 -20 -20 -18 9 8 6 13 4 8 10 11 12
-20 -20 -20 -20 -20 -20 -20 -20 -20 -20 -20 -20 -20 -20 -20 -20 -20 -20 -20 -20 -20 -20 -20 -20 -18 14 15 11 5 19 23 14 18
-20 -20 -20 -20 -20 -20 -20 -20 -20 -20 -20 -20 -20 -20 -20 -20 -20 -20 -20 -20 -20 -20 -20 -20 -20 -20 -20 3 -4 -0 4 19 8
-20 -20 -20 -20 -20 -20 -20 -20 -20 -20 -20 -20 -20 -20 -20 -20 -20 -20 -20 -20 -20 -20 -20 -20 -20 -20 -20 -20 8 11 13 19 18
-20 -20 -20 -20 -20 -20 -20 -20 -20 -20 -20 -20 -20 -20 -20 -20 -20 -20 -20 -20 -20 -20 -20 -20 -20 -20 -20 -20 -20 -20 -2 18 7
-20 -20 -20 -20 -20 -20 -20 -20 -20 -20 -20 -20 -20 -20 -20 -20 -20 -20 -20 -20 -20 -20 -20 -20 -20 -20 -20 -20 -20 -20 -20 -12 7
-20 -20 -20 -20 -20 -20 -20 -20 -20 -20 -20 -20 -20 -20 -20 -20 -20 -20 -20 -20 -20 -20 -20 -20 -20 -20 -20 -20 -20 -20 -20 -20 -20
Wind_Speed
4 3 3 3 3 3 5 5 6 6 5 4 5 4 6 8 6 5 7 6 9 9 8 8 7 7 6 4 5 9 7 2 4
4 5 3 2 3 3 5 7 7 7 6 5 5 4 8 6 2 4 8 6 10 7 6 6 5 5 5 5 3 4 6 3 1
7 12 12 10 10 6 9 10 10 9 8 6 4 3 5 7 2 9 7 10 8 8 6 3 3 3 4 5 5 1 3 4 4
6 12 11 9 12 11 12 13 13 10 9 7 5 6 6 5 9 10 5 8 7 7 7 5 3 2 3 6 6 6 5 7 6
8 13 10 10 10 9 11 10 9 8 7 6 8 10 10 8 9 7 7 10 7 7 7 6 5 5 6 7 9 10 12 15 13
8 5 6 8 8 8 8 8 9 6 7 9 13 13 7 9 8 6 14 12 11 11 10 6 4 4 7 9 13 15 14 14 15
6 6 4 5 4 4 5 6 9 7 4 4 9 6 9 8 8 7 19 12 12 13 12 9 6 3 8 10 10 10 10 11 11
3 2 2 1 2 2 3 4 4 5 4 7 7 8 7 5 6 12 18 21 14 14 14 14 7 8 12 10 10 11 11 12 10
4 3 4 4 3 4 5 3 4 10 11 9 10 9 6 5 5 10 18 20 20 20 15 16 12 11 13 13 12 11 11 10 10
4 4 4 3 3 4 4 4 5 7 9 9 9 8 8 8 4 4 17 19 20 20 23 18 14 13 11 11 10 11 8 8 6
4 4 4 4 3 4 4 4 5 6 6 8 8 8 7 7 6 4 6 19 19 19 20 21 21 15 11 9 11 9 7 2 8
4 4 4 3 1 3 3 4 5 5 5 6 6 6 6 6 7 5 5 6 18 19 20 19 20 20 20 13 7 7 5 6 8
4 4 4 3 3 3 3 4 4 5 5 5 4 5 5 6 6 6 6 5 5 11 19 20 21 20 20 18 17 14 12 14 13
5 4 2 3 3 4 2 4 4 4 5 6 5 5 4 5 5 7 6 6 5 3 13 18 19 20 21 20 18 15 14 18 20
5 4 3 4 4 4 4 5 5 4 4 7 5 4 5 5 5 5 5 6 6 6 5 5 6 17 20 20 20 16 17 19 21
5 4 4 4 5 4 4 3 5 5 3 4 4 4 5 6 5 5 4 5 5 6 6 4 4 6 16 20 21 21 19 18 20
5 5 4 5 4 5 3 3 3 2 3 2 3 3 2 3 4 4 4 6 5 5 6 6 6 5 4 12 20 21 18 18 19
5 5 5 5 5 4 3 3 3 3 2 4 3 3 3 4 1 4 4 5 4 4 5 5 6 6 5 9 11 17 18 18 21
4 5 5 5 4 6 3 3 3 3 3 2 3 4 3 3 3 1 3 4 5 5 4 5 5 6 5 10 13 15 16 17 18
5 5 6 5 4 5 6 5 5 3 4 2 2 3 3 3 3 3 2 2 3 3 3 4 4 5 5 4 8 14 13 13 15
Wind_Direction
20 22 13 7 0 18 55 69 60 51 61 63 47 29 334 324 306 34 61 59 55 46 35 33 43 42 40 61 91 136 155 23 105
39 130 99 92 59 62 86 70 72 61 61 68 67 15 334 320 351 70 71 49 41 29 16 25 22 40 40 46 71 132 153 173 309
82 66 57 61 56 71 68 73 72 63 59 60 52 14 351 321 19 69 61 41 33 17 4 341 18 39 43 46 51 36 148 82 360
110 70 58 55 53 66 56 62 64 55 46 39 12 338 343 325 51 58 44 21 17 24 21 27 51 74 52 64 63 59 68 156 178
51 45 37 46 50 59 68 64 73 50 43 31 9 350 328 61 58 39 20 12 23 30 27 38 39 64 68 69 69 72 77 77 71
94 87 61 61 58 59 59 63 64 47 35 26 30 28 43 61 52 32 13 22 45 44 28 23 25 67 82 85 88 85 93 89 84
109 130 120 94 97 97 103 113 90 64 51 33 39 51 57 50 49 37 21 28 43 45 40 30 28 73 113 101 99 95 89 94 91
176 150 152 197 69 179 163 89 77 82 81 60 55 54 55 60 50 33 31 33 37 49 43 36 39 88 108 104 100 91 82 72 64
68 68 52 62 25 70 67 61 102 75 62 70 61 60 60 53 55 37 37 38 38 43 49 43 72 86 93 94 90 78 76 70 67
76 74 70 55 37 47 58 94 85 82 68 66 75 68 63 58 55 43 42 48 40 44 41 49 66 77 98 109 85 79 74 66 37
69 74 70 57 59 63 61 60 89 107 101 88 89 80 73 66 58 48 35 49 47 48 49 46 47 60 65 74 87 59 46 7 345
93 89 72 67 41 108 100 79 77 84 102 112 100 91 95 86 69 57 44 42 45 43 48 46 47 45 50 61 65 31 24 349 326
92 87 70 39 31 75 91 101 91 111 107 96 90 75 80 82 75 62 52 38 42 38 48 44 42 42 40 40 44 47 51 28 6
95 94 90 85 57 51 71 63 117 107 102 95 86 86 83 82 82 71 61 58 51 48 50 48 43 40 40 36 32 48 54 43 35
102 98 87 101 97 69 66 75 57 93 107 97 82 79 80 71 69 67 64 55 40 39 49 44 38 46 40 38 26 41 53 49 41
116 118 98 82 94 99 102 103 84 40 61 105 73 68 82 78 76 71 64 55 52 44 40 31 29 41 41 34 29 26 38 44 42
130 121 114 112 100 80 78 104 99 78 33 150 142 131 62 59 80 74 81 68 58 45 44 32 28 42 28 34 32 23 32 41 42
113 118 114 94 103 100 80 71 96 131 13 52 140 121 149 133 135 88 81 85 72 62 65 50 32 36 39 30 22 24 33 38 45
119 116 116 113 114 108 107 72 77 108 134 48 36 59 114 150 135 113 122 108 90 68 43 51 42 46 41 33 22 26 36 38 36
144 129 121 114 105 109 114 91 76 64 105 100 102 60 47 59 122 154 167 74 107 96 86 73 56 55 57 28 19 33 32 32 26